This is the latest recevied weather packets stored in our database for station/object F4GSP-4. If no packets are shown the sender has not sent any weather packets the latest 10 day(s).
| Time | Temp. | Humidity | Pressure | Rain* | Wind** | Luminosity | Snow |
|---|---|---|---|---|---|---|---|
| 1778068390 | 14.44° C | 58% | 1020.6 hPa | - | - | - | - |
| 1778067490 | 12.78° C | 58% | 1020.7 hPa | - | - | - | - |
| 1778066589 | 12.22° C | 57% | 1020.8 hPa | - | - | - | - |
| 1778065689 | 12.78° C | 58% | 1020.4 hPa | - | - | - | - |
| 1778064789 | 13.33° C | 59% | 1020.3 hPa | - | - | - | - |
| 1778063889 | 12.78° C | 59% | 1020.3 hPa | - | - | - | - |
| 1778062989 | 11.67° C | 58% | 1020.2 hPa | - | - | - | - |
| 1778062089 | 11.11° C | 59% | 1020.3 hPa | - | - | - | - |
| 1778061188 | 11.11° C | 59% | 1020.3 hPa | - | - | - | - |
| 1778060288 | 10.56° C | 58% | 1020.3 hPa | - | - | - | - |
| 1778059388 | 11.11° C | 58% | 1020.3 hPa | - | - | - | - |
| 1778058488 | 11.67° C | 58% | 1020.2 hPa | - | - | - | - |
| 1778057588 | 11.67° C | 59% | 1020 hPa | - | - | - | - |
| 1778056688 | 12.22° C | 58% | 1019.8 hPa | - | - | - | - |
| 1778055788 | 12.22° C | 59% | 1019.9 hPa | - | - | - | - |
| 1778054887 | 11.67° C | 59% | 1019.8 hPa | - | - | - | - |
| 1778053987 | 11.11° C | 59% | 1019.7 hPa | - | - | - | - |
| 1778053087 | 11.11° C | 59% | 1019.8 hPa | - | - | - | - |
| 1778052187 | 11.11° C | 59% | 1019.7 hPa | - | - | - | - |
| 1778051287 | 11.11° C | 59% | 1019.8 hPa | - | - | - | - |
| 1778050386 | 11.11° C | 60% | 1019.7 hPa | - | - | - | - |
| 1778049486 | 10° C | 60% | 1019.8 hPa | - | - | - | - |
| 1778048586 | 8.89° C | 60% | 1019.8 hPa | - | - | - | - |
| 1778047686 | 8.33° C | 60% | 1019.9 hPa | - | - | - | - |
| 1778046786 | 7.22° C | 60% | 1019.8 hPa | - | - | - | - |
* Rain since midnight (hover to see other rain measurements)
** Current wind speed in m/s (hover to see current wind gust speed)